Location: Alta
(39.2070°N, 120.8111°W)
Time: 17:55:07
(UTC+00:00)

Tiangong - Visible Passes

Search period start: 13 March 2026 00:00
Search period end: 23 March 2026 00:00
Orbit: 381 x 390 km, 41.5° (Epoch: 12 March)

Date Brightness Start Highest point End Pass type
(mag) Time Alt. Az. Time Alt. Az. Time Alt. Az.
13 Mar 0.7 12:03:04 17° ESE 12:03:04 17° ESE 12:04:10 10° E visible
13 Mar -2.1 13:35:17 13° W 13:38:05 78° NNW 13:41:17 10° ENE visible
14 Mar -2.1 12:38:35 73° SSE 12:38:35 73° SSE 12:41:44 10° ENE visible
15 Mar 1.3 11:41:48 12° E 11:41:48 12° E 11:42:05 10° E visible
15 Mar -1.9 13:14:01 22° W 13:15:51 60° N 13:19:00 10° ENE visible
16 Mar -0.8 12:17:08 41° ENE 12:17:08 41° ENE 12:19:21 10° ENE visible
17 Mar -1.7 12:52:25 35° WNW 12:53:25 54° N 12:56:34 10° ENE visible
18 Mar 0.4 11:55:26 22° ENE 11:55:26 22° ENE 11:56:46 10° ENE visible
18 Mar -1.9 13:27:39 11° WNW 13:30:39 65° N 13:33:49 10° E visible
19 Mar -1.8 12:30:39 54° N 12:30:48 55° N 12:33:56 10° E visible
20 Mar 1.3 11:33:38 13° ENE 11:33:38 13° ENE 11:34:01 10° ENE visible
20 Mar -2.2 13:05:50 20° WNW 13:07:52 86° N 13:11:03 10° ESE visible
21 Mar -0.9 12:08:51 41° ENE 12:08:51 41° ENE 12:11:07 10° E visible
22 Mar -2.1 12:44:06 45° W 12:44:51 63° SSW 12:48:00 10° ESE visible
